Flag for Germany Weather past 2 weeks in Saarbrücken, Saarland, Germany

Now
55 °F

Sunny.


Feels Like: 53 °F
Forecast: 46 / 59 °F
Wind: 9 mph from Southwest

Location: Saarbruecken / Ensheim

Current Time: May 29, 2015 at 11:04:02 PM

Latest Report: May 29, 2015 at 10:20 PM


Visibility: 10 mi

Pressure: 29.89 "Hg

Humidity: 72%

Dew point: 46 °F

Location of SaarbrückenLocation

Historic Weather in Saarbrücken — Graph

°F

Saarbrücken temperature yesterday

Maximum temperature yesterday: 68 °F (at 3:20 PM)
Minimum temperature yesterday: 45 °F (at 12:50 AM)
Average temperature yesterday: 56 °F

Past Weeks' High & Low Weather Summary

 TemperatureHumidityPressure
High68 °F (May 18, 3:20 PM)100% (May 15, 2:50 AM)30.33 "Hg (May 15, 2:50 AM)
Low37 °F (May 21, 4:20 AM)34% (May 21, 7:20 PM)29.74 "Hg (May 18, 6:20 PM)
Average54 °F68%30.07 "Hg
* Reported May 14 9:20 PM — May 29 9:50 PM, Saarbrücken, Weather by CustomWeather, © 2015

Note: Actual official high and low records may vary slightly from our data, if they occured in-between our weather recording intervals... More about our weather records

Advertising

Saarbrücken weather history for previous 24 hours

 ConditionsComfort  
Time TempWeatherWind HumidityBarometerVisibility
9:50 PM
Fri, May 29
55 °FSunny.7 mph72%29.89 "Hg10 mi
9:20 PM55 °FSunny.8 mph72%29.86 "Hg10 mi
8:50 PM55 °FBroken clouds.10 mph72%29.86 "HgN/A
8:20 PM57 °FPartly sunny.10 mph63%29.86 "HgN/A
7:50 PM57 °FPartly sunny.15 mph63%29.86 "HgN/A
7:20 PM57 °FPartly sunny.16 mph67%29.86 "HgN/A
6:50 PM57 °FPartly sunny.14 mph72%29.86 "HgN/A
6:20 PM59 °FBroken clouds.18 mph68%29.86 "HgN/A
5:50 PM59 °FBroken clouds.16 mph77%29.86 "HgN/A
5:20 PM59 °FBroken clouds.17 mph82%29.86 "HgN/A
4:50 PM59 °FBroken clouds.13 mph82%29.86 "HgN/A
4:20 PM57 °FBroken clouds.10 mph88%29.86 "HgN/A
3:50 PM57 °FPartly sunny.7 mph88%29.86 "HgN/A
3:20 PM55 °FLight rain. Partly sunny.9 mph88%29.86 "Hg4 mi
2:50 PM57 °FThunderstorms. Broken clouds.16 mph77%29.86 "Hg4 mi
2:20 PM63 °FBroken clouds.15 mph64%29.86 "HgN/A
1:50 PM61 °FBroken clouds.13 mph68%29.86 "HgN/A
1:20 PM59 °FBroken clouds.10 mph72%29.89 "HgN/A
12:50 PM59 °FBroken clouds.8 mph72%29.89 "HgN/A
12:20 PM59 °FBroken clouds.10 mph72%29.89 "HgN/A
11:50 AM59 °FBroken clouds.10 mph72%29.89 "HgN/A
11:20 AM57 °FPartly sunny.9 mph72%29.92 "HgN/A
10:50 AM57 °FPartly sunny.10 mph72%29.92 "HgN/A
10:20 AM59 °FPartly sunny.9 mph68%29.92 "HgN/A
9:50 AM57 °FPassing clouds.7 mph72%29.92 "HgN/A
9:20 AM57 °FPassing clouds.7 mph67%29.92 "HgN/A
8:50 AM57 °FPassing clouds.6 mph72%29.92 "HgN/A
8:20 AM55 °FSunny.2 mph72%29.95 "Hg10 mi
7:50 AM54 °FPartly sunny.1 mph82%29.95 "HgN/A
7:20 AM52 °FPartly sunny.1 mph88%29.95 "HgN/A
6:50 AM48 °FBroken clouds.2 mph94%29.95 "HgN/A
6:20 AM48 °FPartly cloudy.1 mph87%29.95 "HgN/A
5:50 AM46 °FPartly cloudy.No wind87%29.95 "HgN/A
5:20 AM46 °FPassing clouds.No wind87%29.95 "HgN/A
4:50 AM46 °FPassing clouds.1 mph87%29.95 "HgN/A
4:20 AM48 °FPassing clouds.No wind87%29.95 "HgN/A
3:50 AM48 °FPassing clouds.No wind87%29.98 "HgN/A
3:20 AM48 °FClear.2 mph87%29.98 "Hg10 mi
2:50 AM50 °FClear.2 mph82%29.98 "Hg10 mi
1:50 AM52 °FClear.1 mph82%30.01 "Hg10 mi
1:20 AM52 °FClear.2 mph77%30.01 "Hg10 mi
12:20 AM52 °FClear.No wind77%30.01 "Hg10 mi
11:50 PM
Thu, May 28
54 °FClear.1 mph72%30.01 "Hg10 mi
11:20 PM54 °FClear.2 mph77%30.01 "Hg10 mi
Weather by CustomWeather, © 2015

See weather overviewHow to use our weather pages